TimeCDT,TemperatureF,Dew PointF,Humidity,Sea Level PressureIn,VisibilityMPH,Wind Direction,Wind SpeedMPH,Gust SpeedMPH,PrecipitationIn,Events,Conditions,WindDirDegrees,DateUTC
12:58 AM,60.1,49.3,67,29.68,10.0,WSW,9.2,-,N/A,,Clear,250,2013-03-16 05:58:00
1:58 AM,59.7,48.9,67,29.70,10.0,WSW,10.4,-,N/A,,Clear,250,2013-03-16 06:58:00
2:58 AM,57.7,47.8,70,29.74,10.0,NNW,11.5,-,N/A,,Clear,340,2013-03-16 07:58:00
3:58 AM,52.0,47.5,85,29.78,10.0,NNW,10.4,-,N/A,,Clear,340,2013-03-16 08:58:00
4:58 AM,48.2,47.1,96,29.80,10.0,NNW,10.4,-,N/A,,Clear,340,2013-03-16 09:58:00
5:58 AM,46.0,45.9,99,29.83,10.0,North,15.0,-,N/A,,Mostly Cloudy,350,2013-03-16 10:58:00
6:43 AM,42.8,42.8,100,29.87,9.0,North,18.4,-,N/A,,Mostly Cloudy,350,2013-03-16 11:43:00
6:53 AM,42.8,42.8,100,29.87,9.0,North,19.6,27.6,N/A,,Mostly Cloudy,350,2013-03-16 11:53:00
6:58 AM,43.0,42.8,99,29.89,8.0,North,19.6,27.6,N/A,,Mostly Cloudy,350,2013-03-16 11:58:00
7:03 AM,42.8,42.8,100,29.88,8.0,North,18.4,24.2,N/A,,Mostly Cloudy,360,2013-03-16 12:03:00
7:58 AM,39.7,39.6,99,29.93,7.0,North,21.9,32.2,N/A,,Overcast,360,2013-03-16 12:58:00
8:23 AM,39.2,39.2,100,29.92,9.0,North,20.7,29.9,N/A,,Overcast,10,2013-03-16 13:23:00
8:58 AM,39.6,38.8,97,29.97,10.0,North,17.3,-,N/A,,Overcast,10,2013-03-16 13:58:00
9:58 AM,40.1,37.9,92,29.97,10.0,NNE,18.4,-,N/A,,Overcast,20,2013-03-16 14:58:00
10:53 AM,41.0,37.4,87,29.98,10.0,NNE,18.4,-,N/A,,Overcast,20,2013-03-16 15:53:00
10:58 AM,41.4,36.9,84,29.99,10.0,NNE,17.3,23.0,N/A,,Overcast,20,2013-03-16 15:58:00
11:58 AM,42.8,36.9,80,30.02,10.0,NNE,13.8,-,N/A,,Overcast,20,2013-03-16 16:58:00
12:58 PM,43.0,36.3,77,30.02,10.0,NNE,12.7,-,N/A,,Overcast,20,2013-03-16 17:58:00
1:58 PM,43.3,36.5,77,30.02,10.0,North,15.0,-,N/A,,Overcast,10,2013-03-16 18:58:00
2:58 PM,43.3,35.1,73,29.99,10.0,NNE,13.8,-,N/A,,Mostly Cloudy,30,2013-03-16 19:58:00
3:58 PM,42.8,34.7,73,30.02,10.0,NNE,12.7,-,N/A,,Mostly Cloudy,30,2013-03-16 20:58:00
4:58 PM,43.0,34.2,71,30.01,10.0,ENE,11.5,-,N/A,,Overcast,60,2013-03-16 21:58:00
5:33 PM,42.8,33.8,70,29.99,10.0,NE,12.7,-,N/A,,Mostly Cloudy,40,2013-03-16 22:33:00
5:37 PM,42.8,33.8,70,29.99,10.0,NE,12.7,-,N/A,,Light Drizzle,40,2013-03-16 22:37:00
5:48 PM,42.8,33.8,70,30.00,10.0,NE,15.0,-,N/A,,Mostly Cloudy,40,2013-03-16 22:48:00
5:58 PM,42.4,34.5,74,30.02,10.0,NE,15.0,-,0.00,,Scattered Clouds,40,2013-03-16 22:58:00
6:48 PM,41.0,33.8,76,30.00,10.0,NNE,10.4,-,N/A,,Mostly Cloudy,30,2013-03-16 23:48:00
6:58 PM,41.5,33.8,74,30.02,10.0,NNE,11.5,-,N/A,,Mostly Cloudy,30,2013-03-16 23:58:00
7:13 PM,41.0,32.0,70,30.00,10.0,NNE,13.8,-,N/A,,Overcast,30,2013-03-17 00:13:00
7:38 PM,41.0,32.0,70,30.01,10.0,NNE,16.1,-,N/A,,Overcast,30,2013-03-17 00:38:00
7:55 PM,39.2,32.0,75,30.02,10.0,NNE,13.8,-,N/A,,Overcast,30,2013-03-17 00:55:00
7:58 PM,39.9,32.9,76,30.05,10.0,NE,15.0,-,0.00,,Overcast,40,2013-03-17 00:58:00
8:58 PM,39.0,32.2,76,30.04,10.0,NE,12.7,-,N/A,,Overcast,40,2013-03-17 01:58:00
9:58 PM,38.3,31.6,77,30.06,10.0,NE,16.1,-,N/A,,Overcast,40,2013-03-17 02:58:00
10:58 PM,37.4,30.9,77,30.07,10.0,NE,16.1,-,N/A,,Mostly Cloudy,40,2013-03-17 03:58:00
11:08 PM,37.4,32.0,81,30.04,10.0,NE,10.4,-,N/A,,Mostly Cloudy,40,2013-03-17 04:08:00
11:48 PM,37.4,32.0,81,30.06,10.0,NE,11.5,-,N/A,,Overcast,40,2013-03-17 04:48:00
11:58 PM,37.2,30.9,78,30.09,10.0,NNE,12.7,-,N/A,,Overcast,30,2013-03-17 04:58:00